Time,TemperatureF,DewpointF,PressureIn,WindDirection,WindDirectionDegrees,WindSpeedMPH,WindSpeedGustMPH,Humidity,HourlyPrecipIn,Conditions,Clouds,dailyrainin,SoftwareType,DateUTC
2013-06-13 00:05:00,60.0,22.6,30.03,North,360,0.0,10.0,24,0.00,,---,0.00,VWS V14.00,2013-06-13 07:05:00,
2013-06-13 00:10:00,58.8,22.6,30.02,North,10,5.0,7.0,24,0.00,,---,0.00,VWS V14.00,2013-06-13 07:10:00,
2013-06-13 00:15:00,57.5,22.4,30.02,NE,47,0.0,5.0,26,0.00,,---,0.00,VWS V14.00,2013-06-13 07:15:00,
2013-06-13 00:20:00,57.3,21.3,30.02,NE,47,0.0,4.0,24,0.00,,---,0.00,VWS V14.00,2013-06-13 07:20:00,
2013-06-13 00:25:00,56.5,22.5,30.02,NE,47,0.0,4.0,26,0.00,,---,0.00,VWS V14.00,2013-06-13 07:25:00,
2013-06-13 00:30:00,56.1,22.2,30.02,NE,47,0.0,0.0,26,0.00,,---,0.00,VWS V14.00,2013-06-13 07:30:00,
2013-06-13 00:35:00,56.0,22.1,30.02,NE,47,0.0,0.0,26,0.00,,---,0.00,VWS V14.00,2013-06-13 07:35:00,
2013-06-13 00:40:00,56.2,21.3,30.02,NE,47,1.0,1.0,26,0.00,,---,0.00,VWS V14.00,2013-06-13 07:40:00,
2013-06-13 00:45:00,56.5,20.6,30.02,NE,46,0.0,2.0,24,0.00,,---,0.00,VWS V14.00,2013-06-13 07:45:00,
2013-06-13 00:50:00,56.5,21.6,30.03,NE,47,0.0,0.0,26,0.00,,---,0.00,VWS V14.00,2013-06-13 07:50:00,
2013-06-13 00:55:00,55.9,18.1,30.02,NE,47,0.0,0.0,22,0.00,,---,0.00,VWS V14.00,2013-06-13 07:55:00,
2013-06-13 01:00:00,56.8,20.9,30.03,NE,47,0.0,0.0,24,0.00,,---,0.00,VWS V14.00,2013-06-13 08:00:00,
2013-06-13 01:05:00,56.5,21.6,30.02,NE,46,0.0,0.0,26,0.00,,---,0.00,VWS V14.00,2013-06-13 08:05:00,
2013-06-13 01:10:00,55.9,21.1,30.03,NE,47,0.0,4.0,26,0.00,,---,0.00,VWS V14.00,2013-06-13 08:10:00,
2013-06-13 01:15:00,55.5,20.7,30.03,NE,47,0.0,0.0,26,0.00,,---,0.00,VWS V14.00,2013-06-13 08:15:00,
2013-06-13 01:20:00,55.3,20.6,30.02,NE,47,0.0,0.0,26,0.00,,---,0.00,VWS V14.00,2013-06-13 08:20:00,
2013-06-13 01:25:00,54.6,20.0,30.03,NE,46,0.0,0.0,26,0.00,,---,0.00,VWS V14.00,2013-06-13 08:25:00,
2013-06-13 01:30:00,54.9,20.2,30.03,NE,47,5.0,6.0,26,0.00,,---,0.00,VWS V14.00,2013-06-13 08:30:00,
2013-06-13 01:35:00,55.1,20.4,30.02,NE,47,0.0,8.0,26,0.00,,---,0.00,VWS V14.00,2013-06-13 08:35:00,
2013-06-13 01:40:00,55.4,20.6,30.02,NE,46,0.0,6.0,26,0.00,,---,0.00,VWS V14.00,2013-06-13 08:40:00,
2013-06-13 01:45:00,55.2,20.5,30.02,NE,47,0.0,7.0,26,0.00,,---,0.00,VWS V14.00,2013-06-13 08:45:00,
2013-06-13 01:50:00,54.8,20.1,30.02,NE,56,10.0,10.0,26,0.00,,---,0.00,VWS V14.00,2013-06-13 08:50:00,
2013-06-13 01:55:00,54.5,19.9,30.02,NE,56,4.0,10.0,26,0.00,,---,0.00,VWS V14.00,2013-06-13 08:55:00,
2013-06-13 02:00:00,53.7,19.2,30.02,ENE,57,7.0,7.0,26,0.00,,---,0.00,VWS V14.00,2013-06-13 09:00:00,
2013-06-13 02:05:00,54.4,19.8,30.03,ENE,58,0.0,9.0,26,0.00,,---,0.00,VWS V14.00,2013-06-13 09:05:00,
2013-06-13 02:10:00,55.2,19.5,30.02,NE,51,5.0,12.0,24,0.00,,---,0.00,VWS V14.00,2013-06-13 09:10:00,
2013-06-13 02:15:00,55.0,19.4,30.02,NE,48,0.0,14.0,24,0.00,,---,0.00,VWS V14.00,2013-06-13 09:15:00,
2013-06-13 02:20:00,54.1,18.6,30.02,NE,48,6.0,12.0,24,0.00,,---,0.00,VWS V14.00,2013-06-13 09:20:00,
2013-06-13 02:25:00,53.2,18.8,30.03,NE,54,3.0,9.0,26,0.00,,---,0.00,VWS V14.00,2013-06-13 09:25:00,
2013-06-13 02:30:00,52.7,18.3,30.03,NE,54,0.0,7.0,26,0.00,,---,0.00,VWS V14.00,2013-06-13 09:30:00,
2013-06-13 02:35:00,51.4,18.1,30.03,NE,54,4.0,5.0,26,0.00,,---,0.00,VWS V14.00,2013-06-13 09:35:00,
2013-06-13 02:40:00,52.3,18.9,30.03,NE,53,0.0,7.0,26,0.00,,---,0.00,VWS V14.00,2013-06-13 09:40:00,
2013-06-13 02:45:00,53.1,18.7,30.03,NE,54,0.0,0.0,26,0.00,,---,0.00,VWS V14.00,2013-06-13 09:45:00,
2013-06-13 02:50:00,52.8,18.4,30.03,NE,54,0.0,0.0,26,0.00,,---,0.00,VWS V14.00,2013-06-13 09:50:00,
2013-06-13 02:55:00,52.6,18.3,30.03,NE,53,0.0,0.0,26,0.00,,---,0.00,VWS V14.00,2013-06-13 09:55:00,
2013-06-13 03:00:00,53.2,18.8,30.03,NE,54,0.0,0.0,26,0.00,,---,0.00,VWS V14.00,2013-06-13 10:00:00,
2013-06-13 03:05:00,53.7,18.3,30.03,NE,54,0.0,0.0,24,0.00,,---,0.00,VWS V14.00,2013-06-13 10:05:00,
2013-06-13 03:10:00,53.9,18.4,30.03,NE,54,0.0,0.0,24,0.00,,---,0.00,VWS V14.00,2013-06-13 10:10:00,
2013-06-13 03:15:00,53.5,18.1,30.03,NE,54,0.0,0.0,24,0.00,,---,0.00,VWS V14.00,2013-06-13 10:15:00,
2013-06-13 03:20:00,52.7,17.4,30.03,NE,53,0.0,0.0,24,0.00,,---,0.00,VWS V14.00,2013-06-13 10:20:00,
2013-06-13 03:25:00,52.1,17.8,30.03,NE,54,1.0,8.0,26,0.00,,---,0.00,VWS V14.00,2013-06-13 10:25:00,
2013-06-13 03:30:00,52.4,18.1,30.03,NE,53,0.0,2.0,26,0.00,,---,0.00,VWS V14.00,2013-06-13 10:30:00,
2013-06-13 03:35:00,53.0,18.6,30.03,NE,54,0.0,0.0,26,0.00,,---,0.00,VWS V14.00,2013-06-13 10:35:00,
2013-06-13 03:40:00,53.2,17.8,30.03,NE,54,0.0,0.0,24,0.00,,---,0.00,VWS V14.00,2013-06-13 10:40:00,
2013-06-13 03:45:00,53.0,17.7,30.03,NE,54,0.0,0.0,24,0.00,,---,0.00,VWS V14.00,2013-06-13 10:45:00,
2013-06-13 03:55:00,52.7,17.4,30.03,NE,53,0.0,0.0,24,0.00,,---,0.00,VWS V14.00,2013-06-13 10:55:00,
2013-06-13 04:00:00,52.2,17.0,30.03,NE,54,0.0,0.0,24,0.00,,---,0.00,VWS V14.00,2013-06-13 11:00:00,
2013-06-13 04:05:00,52.9,17.6,30.03,NE,54,0.0,0.0,24,0.00,,---,0.00,VWS V14.00,2013-06-13 11:05:00,
2013-06-13 04:10:00,53.5,17.1,30.03,NE,54,0.0,0.0,24,0.00,,---,0.00,VWS V14.00,2013-06-13 11:10:00,
2013-06-13 04:20:00,53.3,17.0,30.03,NE,54,0.0,0.0,24,0.00,,---,0.00,VWS V14.00,2013-06-13 11:20:00,
2013-06-13 04:30:00,51.4,17.2,30.03,NE,53,0.0,0.0,26,0.00,,---,0.00,VWS V14.00,2013-06-13 11:30:00,
2013-06-13 04:35:00,51.2,18.0,30.03,NE,54,0.0,0.0,26,0.00,,---,0.00,VWS V14.00,2013-06-13 11:35:00,
2013-06-13 04:40:00,50.3,17.2,30.03,NE,54,0.0,0.0,26,0.00,,---,0.00,VWS V14.00,2013-06-13 11:40:00,
2013-06-13 04:45:00,49.5,17.4,30.04,NE,54,0.0,0.0,28,0.00,,---,0.00,VWS V14.00,2013-06-13 11:45:00,
2013-06-13 04:50:00,49.0,16.1,30.04,NE,53,0.0,0.0,26,0.00,,---,0.00,VWS V14.00,2013-06-13 11:50:00,
2013-06-13 04:55:00,48.3,16.3,30.04,NE,54,0.0,0.0,28,0.00,,---,0.00,VWS V14.00,2013-06-13 11:55:00,
2013-06-13 05:00:00,48.9,16.8,30.04,NE,53,0.0,0.0,28,0.00,,---,0.00,VWS V14.00,2013-06-13 12:00:00,
2013-06-13 05:05:00,49.5,17.4,30.04,NE,54,0.0,0.0,28,0.00,,---,0.00,VWS V14.00,2013-06-13 12:05:00,
2013-06-13 05:15:00,49.6,17.4,30.04,NE,54,0.0,0.0,28,0.00,,---,0.00,VWS V14.00,2013-06-13 12:15:00,
2013-06-13 05:20:00,49.6,17.4,30.04,NE,54,0.0,0.0,28,0.00,,---,0.00,VWS V14.00,2013-06-13 12:20:00,
2013-06-13 05:25:00,48.7,17.5,30.04,NE,53,0.0,0.0,28,0.00,,---,0.00,VWS V14.00,2013-06-13 12:25:00,
2013-06-13 05:30:00,47.3,17.1,30.04,NE,54,2.0,2.0,30,0.00,,---,0.00,VWS V14.00,2013-06-13 12:30:00,
2013-06-13 05:35:00,46.7,17.3,30.04,NE,54,0.0,7.0,30,0.00,,---,0.00,VWS V14.00,2013-06-13 12:35:00,
2013-06-13 05:40:00,46.3,17.0,30.04,NE,53,1.0,6.0,30,0.00,,---,0.00,VWS V14.00,2013-06-13 12:40:00,
2013-06-13 05:50:00,45.5,16.3,30.05,NE,54,0.0,0.0,30,0.00,,---,0.00,VWS V14.00,2013-06-13 12:50:00,
2013-06-13 05:55:00,45.4,16.2,30.05,NE,54,0.0,0.0,30,0.00,,---,0.00,VWS V14.00,2013-06-13 12:55:00,
2013-06-13 06:00:00,45.3,15.3,30.05,NE,53,0.0,0.0,30,0.00,,---,0.00,VWS V14.00,2013-06-13 13:00:00,
2013-06-13 06:10:00,45.8,15.8,30.05,NE,54,0.0,4.0,30,0.00,,---,0.00,VWS V14.00,2013-06-13 13:10:00,
2013-06-13 06:15:00,46.5,16.4,30.05,NE,53,0.0,0.0,30,0.00,,---,0.00,VWS V14.00,2013-06-13 13:15:00,
2013-06-13 06:25:00,48.3,16.3,30.05,NE,54,0.0,0.0,28,0.00,,---,0.00,VWS V14.00,2013-06-13 13:25:00,
2013-06-13 06:30:00,49.1,17.8,30.05,NE,54,0.0,0.0,28,0.00,,---,0.00,VWS V14.00,2013-06-13 13:30:00,
2013-06-13 06:35:00,50.0,18.6,30.06,NE,54,0.0,0.0,28,0.00,,---,0.00,VWS V14.00,2013-06-13 13:35:00,
2013-06-13 06:40:00,49.7,18.4,30.05,NE,53,0.0,0.0,28,0.00,,---,0.00,VWS V14.00,2013-06-13 13:40:00,
2013-06-13 06:45:00,50.9,18.5,30.05,NE,54,0.0,0.0,28,0.00,,---,0.00,VWS V14.00,2013-06-13 13:45:00,
2013-06-13 06:50:00,52.0,18.6,30.05,NE,53,0.0,0.0,26,0.00,,---,0.00,VWS V14.00,2013-06-13 13:50:00,
2013-06-13 07:00:00,52.9,19.4,30.06,NE,54,0.0,0.0,26,0.00,,---,0.00,VWS V14.00,2013-06-13 14:00:00,
2013-06-13 07:10:00,52.8,20.2,30.06,NE,53,0.0,0.0,28,0.00,,---,0.00,VWS V14.00,2013-06-13 14:10:00,
2013-06-13 07:20:00,54.0,20.4,30.06,NE,53,0.0,0.0,26,0.00,,---,0.00,VWS V14.00,2013-06-13 14:20:00,
2013-06-13 07:25:00,53.9,19.4,30.06,NE,54,0.0,0.0,26,0.00,,---,0.00,VWS V14.00,2013-06-13 14:25:00,
2013-06-13 07:30:00,54.6,20.9,30.06,NE,53,0.0,0.0,26,0.00,,---,0.00,VWS V14.00,2013-06-13 14:30:00,
2013-06-13 07:35:00,55.2,20.5,30.06,NE,54,0.0,0.0,26,0.00,,---,0.00,VWS V14.00,2013-06-13 14:35:00,
2013-06-13 07:40:00,55.5,20.7,30.06,NE,54,0.0,0.0,26,0.00,,---,0.00,VWS V14.00,2013-06-13 14:40:00,
2013-06-13 07:50:00,55.6,20.8,30.06,NE,54,0.0,0.0,26,0.00,,---,0.00,VWS V14.00,2013-06-13 14:50:00,
2013-06-13 07:55:00,55.8,21.0,30.06,NE,53,0.0,0.0,26,0.00,,---,0.00,VWS V14.00,2013-06-13 14:55:00,
2013-06-13 08:00:00,56.4,21.5,30.06,NE,54,0.0,0.0,26,0.00,,---,0.00,VWS V14.00,2013-06-13 15:00:00,
2013-06-13 08:10:00,57.0,22.0,30.07,NE,54,0.0,0.0,26,0.00,,---,0.00,VWS V14.00,2013-06-13 15:10:00,
2013-06-13 08:15:00,57.3,22.3,30.07,NE,54,0.0,0.0,26,0.00,,---,0.00,VWS V14.00,2013-06-13 15:15:00,
2013-06-13 08:20:00,57.8,21.8,30.07,NE,53,0.0,6.0,24,0.00,,---,0.00,VWS V14.00,2013-06-13 15:20:00,
2013-06-13 08:25:00,58.2,23.0,30.07,ENE,76,0.0,0.0,26,0.00,,---,0.00,VWS V14.00,2013-06-13 15:25:00,
2013-06-13 08:30:00,59.0,22.8,30.07,East,79,0.0,0.0,24,0.00,,---,0.00,VWS V14.00,2013-06-13 15:30:00,
2013-06-13 08:35:00,59.3,18.8,30.07,East,79,0.0,0.0,20,0.00,,---,0.00,VWS V14.00,2013-06-13 15:35:00,
2013-06-13 08:45:00,61.0,19.1,30.08,East,79,0.0,0.0,20,0.00,,---,0.00,VWS V14.00,2013-06-13 15:45:00,
2013-06-13 08:55:00,61.8,15.9,30.08,NE,38,0.0,7.0,16,0.00,,---,0.00,VWS V14.00,2013-06-13 15:55:00,
2013-06-13 09:00:00,62.2,23.5,30.08,North,349,2.0,9.0,22,0.00,,---,0.00,VWS V14.00,2013-06-13 16:00:00,
2013-06-13 09:05:00,61.8,15.9,30.08,NNW,346,0.0,8.0,16,0.00,,---,0.00,VWS V14.00,2013-06-13 16:05:00,
2013-06-13 09:10:00,62.1,20.0,30.08,NNW,335,7.0,9.0,20,0.00,,---,0.00,VWS V14.00,2013-06-13 16:10:00,
2013-06-13 09:20:00,63.3,10.8,30.08,NNW,327,0.0,11.0,12,0.00,,---,0.00,VWS V14.00,2013-06-13 16:20:00,
2013-06-13 09:30:00,65.0,8.2,30.08,NNW,328,0.0,10.0,10,0.00,,---,0.00,VWS V14.00,2013-06-13 16:30:00,
2013-06-13 09:40:00,64.8,8.1,30.09,NNW,341,5.0,13.0,10,0.00,,---,0.00,VWS V14.00,2013-06-13 16:40:00,
2013-06-13 09:45:00,64.9,5.9,30.09,NNW,342,7.0,7.0,10,0.00,,---,0.00,VWS V14.00,2013-06-13 16:45:00,
2013-06-13 09:55:00,65.0,6.0,30.09,NW,313,6.0,12.0,10,0.00,,---,0.00,VWS V14.00,2013-06-13 16:55:00,
2013-06-13 10:00:00,65.3,6.2,30.09,NW,310,10.0,13.0,10,0.00,,---,0.00,VWS V14.00,2013-06-13 17:00:00,
2013-06-13 10:10:00,65.5,4.0,30.09,West,281,12.0,13.0,8,0.00,,---,0.00,VWS V14.00,2013-06-13 17:10:00,
2013-06-13 10:15:00,65.3,6.2,30.09,West,281,4.0,13.0,10,0.00,,---,0.00,VWS V14.00,2013-06-13 17:15:00,
2013-06-13 10:25:00,66.5,9.4,30.09,West,281,11.0,11.0,10,0.00,,---,0.00,VWS V14.00,2013-06-13 17:25:00,
2013-06-13 10:30:00,66.3,9.2,30.10,West,281,8.0,12.0,10,0.00,,---,0.00,VWS V14.00,2013-06-13 17:30:00,
2013-06-13 10:35:00,66.4,9.3,30.10,West,281,10.0,12.0,10,0.00,,---,0.00,VWS V14.00,2013-06-13 17:35:00,
2013-06-13 10:45:00,66.4,9.3,30.10,WNW,291,8.0,14.0,10,0.00,,---,0.00,VWS V14.00,2013-06-13 17:45:00,
2013-06-13 10:50:00,66.7,9.5,30.10,WNW,286,6.0,13.0,10,0.00,,---,0.00,VWS V14.00,2013-06-13 17:50:00,
2013-06-13 10:55:00,67.0,9.8,30.10,WNW,286,4.0,7.0,10,0.00,,---,0.00,VWS V14.00,2013-06-13 17:55:00,
2013-06-13 11:00:00,67.4,10.1,30.09,WNW,286,7.0,9.0,10,0.00,,---,0.00,VWS V14.00,2013-06-13 18:00:00,
2013-06-13 11:05:00,67.2,9.9,30.09,WNW,286,6.0,10.0,10,0.00,,---,0.00,VWS V14.00,2013-06-13 18:05:00,
2013-06-13 11:10:00,68.0,8.3,30.09,WNW,286,6.0,8.0,10,0.00,,---,0.00,VWS V14.00,2013-06-13 18:10:00,
2013-06-13 11:20:00,69.5,9.4,30.09,SW,233,19.0,19.0,10,0.00,,---,0.00,VWS V14.00,2013-06-13 18:20:00,
2013-06-13 11:25:00,70.6,5.1,30.09,SW,232,6.0,18.0,8,0.00,,---,0.00,VWS V14.00,2013-06-13 18:25:00,
2013-06-13 11:35:00,72.1,6.2,30.09,WSW,237,12.0,23.0,8,0.00,,---,0.00,VWS V14.00,2013-06-13 18:35:00,
2013-06-13 11:40:00,72.1,6.2,30.09,SW,219,18.0,26.0,8,0.00,,---,0.00,VWS V14.00,2013-06-13 18:40:00,
2013-06-13 11:45:00,71.1,5.4,30.09,SW,219,7.0,26.0,8,0.00,,---,0.00,VWS V14.00,2013-06-13 18:45:00,
2013-06-13 11:55:00,71.4,2.5,30.09,SW,227,16.0,20.0,6,0.00,,---,0.00,VWS V14.00,2013-06-13 18:55:00,
2013-06-13 12:00:00,70.4,4.9,30.09,SW,234,6.0,16.0,8,0.00,,---,0.00,VWS V14.00,2013-06-13 19:00:00,
2013-06-13 12:05:00,71.5,5.7,30.09,SW,229,10.0,21.0,8,0.00,,---,0.00,VWS V14.00,2013-06-13 19:05:00,
2013-06-13 12:10:00,71.7,2.8,30.09,SW,236,10.0,18.0,6,0.00,,---,0.00,VWS V14.00,2013-06-13 19:10:00,
2013-06-13 12:15:00,70.8,5.2,30.09,West,264,9.0,26.0,8,0.00,,---,0.00,VWS V14.00,2013-06-13 19:15:00,
2013-06-13 12:20:00,70.4,1.8,30.09,West,269,8.0,18.0,6,0.00,,---,0.00,VWS V14.00,2013-06-13 19:20:00,
2013-06-13 12:25:00,71.2,5.5,30.09,West,264,12.0,30.0,8,0.00,,---,0.00,VWS V14.00,2013-06-13 19:25:00,
2013-06-13 12:35:00,71.6,2.7,30.08,WSW,250,8.0,24.0,6,0.00,,---,0.00,VWS V14.00,2013-06-13 19:35:00,
2013-06-13 12:45:00,72.6,6.5,30.08,WSW,257,12.0,19.0,8,0.00,,---,0.00,VWS V14.00,2013-06-13 19:45:00,
2013-06-13 12:55:00,72.5,6.5,30.08,WSW,245,6.0,22.0,8,0.00,,---,0.00,VWS V14.00,2013-06-13 19:55:00,
2013-06-13 13:00:00,72.6,6.5,30.08,West,273,13.0,18.0,8,0.00,,---,0.00,VWS V14.00,2013-06-13 20:00:00,
2013-06-13 13:05:00,72.8,3.6,30.08,SW,229,8.0,24.0,6,0.00,,---,0.00,VWS V14.00,2013-06-13 20:05:00,
2013-06-13 13:15:00,72.0,3.0,30.08,WSW,254,6.0,21.0,6,0.00,,---,0.00,VWS V14.00,2013-06-13 20:15:00,
2013-06-13 13:20:00,73.4,4.0,30.08,WNW,282,16.0,21.0,6,0.00,,---,0.00,VWS V14.00,2013-06-13 20:20:00,
2013-06-13 13:25:00,72.6,3.4,30.08,WNW,295,14.0,22.0,6,0.00,,---,0.00,VWS V14.00,2013-06-13 20:25:00,
2013-06-13 13:30:00,73.3,9.8,30.08,West,263,18.0,22.0,8,0.00,,---,0.00,VWS V14.00,2013-06-13 20:30:00,
2013-06-13 13:35:00,72.3,3.2,30.08,West,261,19.0,28.0,6,0.00,,---,0.00,VWS V14.00,2013-06-13 20:35:00,
2013-06-13 13:40:00,72.6,9.3,30.08,West,276,16.0,24.0,8,0.00,,---,0.00,VWS V14.00,2013-06-13 20:40:00,
2013-06-13 13:45:00,73.0,9.6,30.08,West,281,22.0,29.0,8,0.00,,---,0.00,VWS V14.00,2013-06-13 20:45:00,
2013-06-13 13:50:00,73.0,9.6,30.08,WNW,291,23.0,26.0,8,0.00,,---,0.00,VWS V14.00,2013-06-13 20:50:00,
2013-06-13 13:55:00,73.4,9.9,30.08,West,261,19.0,23.0,8,0.00,,---,0.00,VWS V14.00,2013-06-13 20:55:00,
2013-06-13 14:00:00,72.8,9.4,30.08,WNW,288,10.0,27.0,8,0.00,,---,0.00,VWS V14.00,2013-06-13 21:00:00,
2013-06-13 14:05:00,73.4,9.9,30.08,WSW,253,21.0,26.0,8,0.00,,---,0.00,VWS V14.00,2013-06-13 21:05:00,
2013-06-13 14:10:00,73.2,7.0,30.09,WNW,290,14.0,30.0,8,0.00,,---,0.00,VWS V14.00,2013-06-13 21:10:00,
2013-06-13 14:20:00,72.3,11.6,30.09,West,277,13.0,23.0,10,0.00,,---,0.00,VWS V14.00,2013-06-13 21:20:00,
2013-06-13 14:25:00,72.5,11.7,30.09,WNW,290,10.0,21.0,10,0.00,,---,0.00,VWS V14.00,2013-06-13 21:25:00,
2013-06-13 14:35:00,73.1,12.2,30.08,West,267,12.0,21.0,10,0.00,,---,0.00,VWS V14.00,2013-06-13 21:35:00,
2013-06-13 14:40:00,73.8,12.7,30.09,NNE,18,11.0,18.0,10,0.00,,---,0.00,VWS V14.00,2013-06-13 21:40:00,
2013-06-13 14:45:00,73.9,12.8,30.08,WNW,302,8.0,19.0,10,0.00,,---,0.00,VWS V14.00,2013-06-13 21:45:00,
2013-06-13 14:50:00,73.3,14.6,30.08,West,264,11.0,25.0,10,0.00,,---,0.00,VWS V14.00,2013-06-13 21:50:00,
2013-06-13 14:55:00,73.5,12.5,30.09,WNW,291,12.0,21.0,10,0.00,,---,0.00,VWS V14.00,2013-06-13 21:55:00,
2013-06-13 15:00:00,72.8,11.9,30.09,WNW,296,8.0,20.0,10,0.00,,---,0.00,VWS V14.00,2013-06-13 22:00:00,
2013-06-13 15:05:00,72.9,14.3,30.09,WNW,302,10.0,18.0,10,0.00,,---,0.00,VWS V14.00,2013-06-13 22:05:00,
2013-06-13 15:15:00,73.1,14.4,30.09,West,272,14.0,16.0,10,0.00,,---,0.00,VWS V14.00,2013-06-13 22:15:00,
2013-06-13 15:20:00,73.1,16.5,30.09,NNW,339,10.0,22.0,12,0.00,,---,0.00,VWS V14.00,2013-06-13 22:20:00,
2013-06-13 15:25:00,73.7,14.9,30.09,WNW,301,11.0,16.0,10,0.00,,---,0.00,VWS V14.00,2013-06-13 22:25:00,
2013-06-13 15:35:00,73.3,18.6,30.08,West,280,11.0,19.0,12,0.00,,---,0.00,VWS V14.00,2013-06-13 22:35:00,
2013-06-13 15:40:00,73.8,17.1,30.08,WSW,248,18.0,20.0,12,0.00,,---,0.00,VWS V14.00,2013-06-13 22:40:00,
2013-06-13 15:45:00,74.0,17.2,30.08,West,271,15.0,21.0,12,0.00,,---,0.00,VWS V14.00,2013-06-13 22:45:00,
2013-06-13 15:50:00,72.9,16.4,30.08,West,268,15.0,24.0,12,0.00,,---,0.00,VWS V14.00,2013-06-13 22:50:00,
2013-06-13 15:55:00,72.7,18.1,30.08,West,272,18.0,19.0,12,0.00,,---,0.00,VWS V14.00,2013-06-13 22:55:00,
2013-06-13 16:00:00,73.5,18.8,30.08,WNW,295,11.0,21.0,12,0.00,,---,0.00,VWS V14.00,2013-06-13 23:00:00,
2013-06-13 16:05:00,73.4,16.8,30.08,WNW,292,12.0,20.0,12,0.00,,---,0.00,VWS V14.00,2013-06-13 23:05:00,
2013-06-13 16:15:00,73.3,16.7,30.08,West,276,16.0,22.0,12,0.00,,---,0.00,VWS V14.00,2013-06-13 23:15:00,
2013-06-13 16:20:00,72.9,16.4,30.08,West,279,13.0,20.0,12,0.00,,---,0.00,VWS V14.00,2013-06-13 23:20:00,
2013-06-13 16:25:00,72.6,16.1,30.08,West,259,19.0,24.0,12,0.00,,---,0.00,VWS V14.00,2013-06-13 23:25:00,
2013-06-13 16:30:00,72.9,16.4,30.08,WSW,253,14.0,26.0,12,0.00,,---,0.00,VWS V14.00,2013-06-13 23:30:00,
2013-06-13 16:35:00,73.0,18.4,30.08,West,281,14.0,28.0,12,0.00,,---,0.00,VWS V14.00,2013-06-13 23:35:00,
2013-06-13 16:40:00,73.0,16.5,30.08,WSW,248,20.0,20.0,12,0.00,,---,0.00,VWS V14.00,2013-06-13 23:40:00,
2013-06-13 16:45:00,72.2,17.8,30.08,West,270,14.0,22.0,12,0.00,,---,0.00,VWS V14.00,2013-06-13 23:45:00,
2013-06-13 16:50:00,72.2,19.5,30.08,West,277,19.0,29.0,14,0.00,,---,0.00,VWS V14.00,2013-06-13 23:50:00,
2013-06-13 16:55:00,72.3,19.6,30.08,West,281,18.0,24.0,14,0.00,,---,0.00,VWS V14.00,2013-06-13 23:55:00,
2013-06-13 17:00:00,72.2,19.5,30.08,West,267,19.0,24.0,14,0.00,,---,0.00,VWS V14.00,2013-06-14 00:00:00,
2013-06-13 17:05:00,72.0,19.4,30.08,West,267,20.0,25.0,14,0.00,,---,0.00,VWS V14.00,2013-06-14 00:05:00,
2013-06-13 17:10:00,72.3,17.8,30.08,WSW,256,13.0,24.0,12,0.00,,---,0.00,VWS V14.00,2013-06-14 00:10:00,
2013-06-13 17:15:00,72.1,19.5,30.08,WNW,284,28.0,28.0,14,0.00,,---,0.00,VWS V14.00,2013-06-14 00:15:00,
2013-06-13 17:20:00,71.5,20.7,30.08,West,273,26.0,28.0,14,0.00,,---,0.00,VWS V14.00,2013-06-14 00:20:00,
2013-06-13 17:25:00,71.3,20.5,30.08,West,281,23.0,26.0,14,0.00,,---,0.00,VWS V14.00,2013-06-14 00:25:00,
2013-06-13 17:30:00,71.3,18.8,30.08,WNW,283,10.0,23.0,14,0.00,,---,0.00,VWS V14.00,2013-06-14 00:30:00,
2013-06-13 17:35:00,71.4,22.2,30.08,West,264,18.0,24.0,16,0.00,,---,0.00,VWS V14.00,2013-06-14 00:35:00,
2013-06-13 17:40:00,71.6,19.1,30.08,West,268,14.0,23.0,14,0.00,,---,0.00,VWS V14.00,2013-06-14 00:40:00,
2013-06-13 17:45:00,71.7,20.8,30.08,WSW,254,23.0,24.0,14,0.00,,---,0.00,VWS V14.00,2013-06-14 00:45:00,
2013-06-13 17:50:00,71.2,18.8,30.08,WSW,255,20.0,26.0,14,0.00,,---,0.00,VWS V14.00,2013-06-14 00:50:00,
2013-06-13 17:55:00,70.9,20.2,30.08,West,260,15.0,25.0,14,0.00,,---,0.00,VWS V14.00,2013-06-14 00:55:00,
2013-06-13 18:00:00,70.8,18.4,30.08,West,267,19.0,24.0,14,0.00,,---,0.00,VWS V14.00,2013-06-14 01:00:00,
2013-06-13 18:05:00,71.0,16.8,30.08,WSW,249,18.0,24.0,12,0.00,,---,0.00,VWS V14.00,2013-06-14 01:05:00,
2013-06-13 18:10:00,70.8,18.4,30.08,West,259,20.0,22.0,14,0.00,,---,0.00,VWS V14.00,2013-06-14 01:10:00,
2013-06-13 18:15:00,70.8,18.4,30.09,WSW,247,12.0,24.0,14,0.00,,---,0.00,VWS V14.00,2013-06-14 01:15:00,
2013-06-13 18:20:00,70.5,18.2,30.09,WSW,256,15.0,20.0,14,0.00,,---,0.00,VWS V14.00,2013-06-14 01:20:00,
2013-06-13 18:25:00,70.2,19.6,30.09,WSW,254,12.0,20.0,14,0.00,,---,0.00,VWS V14.00,2013-06-14 01:25:00,
2013-06-13 18:30:00,69.8,19.3,30.09,WSW,258,11.0,18.0,14,0.00,,---,0.00,VWS V14.00,2013-06-14 01:30:00,
2013-06-13 18:35:00,70.1,17.9,30.10,WSW,246,9.0,19.0,14,0.00,,---,0.00,VWS V14.00,2013-06-14 01:35:00,
2013-06-13 18:40:00,70.0,17.8,30.10,West,276,11.0,14.0,14,0.00,,---,0.00,VWS V14.00,2013-06-14 01:40:00,
2013-06-13 18:45:00,69.5,17.4,30.10,West,274,8.0,16.0,14,0.00,,---,0.00,VWS V14.00,2013-06-14 01:45:00,
2013-06-13 18:50:00,69.4,17.3,30.10,West,270,5.0,12.0,14,0.00,,---,0.00,VWS V14.00,2013-06-14 01:50:00,
2013-06-13 19:00:00,69.3,17.2,30.10,West,261,8.0,12.0,14,0.00,,---,0.00,VWS V14.00,2013-06-14 02:00:00,
2013-06-13 19:05:00,69.4,15.6,30.10,West,261,9.0,10.0,12,0.00,,---,0.00,VWS V14.00,2013-06-14 02:05:00,
2013-06-13 19:10:00,69.2,17.2,30.10,West,276,9.0,13.0,14,0.00,,---,0.00,VWS V14.00,2013-06-14 02:10:00,
2013-06-13 19:15:00,68.8,16.9,30.10,West,263,9.0,14.0,14,0.00,,---,0.00,VWS V14.00,2013-06-14 02:15:00,
2013-06-13 19:20:00,68.5,16.6,30.10,West,272,12.0,13.0,14,0.00,,---,0.00,VWS V14.00,2013-06-14 02:20:00,
2013-06-13 19:25:00,68.2,19.6,30.10,West,279,8.0,14.0,16,0.00,,---,0.00,VWS V14.00,2013-06-14 02:25:00,
2013-06-13 19:30:00,67.9,20.8,30.11,WNW,283,10.0,14.0,16,0.00,,---,0.00,VWS V14.00,2013-06-14 02:30:00,
2013-06-13 19:35:00,67.4,20.4,30.11,WNW,299,14.0,18.0,16,0.00,,---,0.00,VWS V14.00,2013-06-14 02:35:00,
2013-06-13 19:40:00,67.0,20.1,30.11,WNW,302,12.0,16.0,16,0.00,,---,0.00,VWS V14.00,2013-06-14 02:40:00,
2013-06-13 19:45:00,66.7,19.8,30.11,WNW,298,11.0,15.0,16,0.00,,---,0.00,VWS V14.00,2013-06-14 02:45:00,
2013-06-13 19:50:00,66.4,21.0,30.11,WNW,296,11.0,14.0,18,0.00,,---,0.00,VWS V14.00,2013-06-14 02:50:00,
2013-06-13 19:55:00,66.1,20.7,30.11,WNW,290,12.0,14.0,18,0.00,,---,0.00,VWS V14.00,2013-06-14 02:55:00,
2013-06-13 20:00:00,65.8,23.0,30.11,WNW,289,10.0,14.0,20,0.00,,---,0.00,VWS V14.00,2013-06-14 03:00:00,
2013-06-13 20:10:00,64.2,25.1,30.11,WNW,289,8.0,11.0,22,0.00,,---,0.00,VWS V14.00,2013-06-14 03:10:00,
2013-06-13 20:15:00,63.2,25.3,30.11,WNW,288,7.0,10.0,24,0.00,,---,0.00,VWS V14.00,2013-06-14 03:15:00,
2013-06-13 20:20:00,62.4,25.7,30.11,WNW,289,5.0,9.0,24,0.00,,---,0.00,VWS V14.00,2013-06-14 03:20:00,
2013-06-13 20:25:00,61.8,26.1,30.11,WNW,289,2.0,8.0,26,0.00,,---,0.00,VWS V14.00,2013-06-14 03:25:00,
2013-06-13 20:30:00,61.0,26.4,30.11,WNW,288,0.0,2.0,26,0.00,,---,0.00,VWS V14.00,2013-06-14 03:30:00,
2013-06-13 20:35:00,60.2,26.6,30.11,WNW,289,0.0,7.0,28,0.00,,---,0.00,VWS V14.00,2013-06-14 03:35:00,
2013-06-13 20:40:00,60.3,26.6,30.12,WNW,289,0.0,0.0,28,0.00,,---,0.00,VWS V14.00,2013-06-14 03:40:00,
2013-06-13 20:45:00,60.5,26.8,30.12,WNW,289,0.0,2.0,28,0.00,,---,0.00,VWS V14.00,2013-06-14 03:45:00,
2013-06-13 20:50:00,60.0,27.2,30.11,WNW,290,0.0,5.0,28,0.00,,---,0.00,VWS V14.00,2013-06-14 03:50:00,
2013-06-13 20:55:00,59.1,26.5,30.11,WNW,291,0.0,0.0,28,0.00,,---,0.00,VWS V14.00,2013-06-14 03:55:00,
2013-06-13 21:00:00,59.0,26.4,30.11,WNW,294,4.0,6.0,28,0.00,,---,0.00,VWS V14.00,2013-06-14 04:00:00,
2013-06-13 21:05:00,59.0,27.2,30.11,WNW,295,4.0,7.0,30,0.00,,---,0.00,VWS V14.00,2013-06-14 04:05:00,
2013-06-13 21:10:00,59.0,27.2,30.12,WNW,297,2.0,7.0,30,0.00,,---,0.00,VWS V14.00,2013-06-14 04:10:00,
2013-06-13 21:15:00,57.9,26.3,30.12,WNW,297,0.0,4.0,30,0.00,,---,0.00,VWS V14.00,2013-06-14 04:15:00,
2013-06-13 21:20:00,57.3,26.5,30.13,WNW,297,0.0,6.0,30,0.00,,---,0.00,VWS V14.00,2013-06-14 04:20:00,
2013-06-13 21:30:00,57.3,27.3,30.13,WNW,296,0.0,0.0,32,0.00,,---,0.00,VWS V14.00,2013-06-14 04:30:00,
2013-06-13 21:35:00,57.6,27.6,30.13,WNW,297,0.0,0.0,32,0.00,,---,0.00,VWS V14.00,2013-06-14 04:35:00,
2013-06-13 21:40:00,57.7,26.9,30.13,WNW,297,0.0,0.0,30,0.00,,---,0.00,VWS V14.00,2013-06-14 04:40:00,
2013-06-13 21:45:00,56.0,25.4,30.14,NNW,340,5.0,8.0,30,0.00,,---,0.00,VWS V14.00,2013-06-14 04:45:00,
2013-06-13 21:50:00,55.8,26.0,30.14,NNW,346,5.0,7.0,32,0.00,,---,0.00,VWS V14.00,2013-06-14 04:50:00,
2013-06-13 21:55:00,56.6,25.9,30.14,NNW,348,0.0,5.0,30,0.00,,---,0.00,VWS V14.00,2013-06-14 04:55:00,
2013-06-13 22:00:00,56.8,25.3,30.14,NNW,348,0.0,2.0,30,0.00,,---,0.00,VWS V14.00,2013-06-14 05:00:00,
2013-06-13 22:05:00,56.7,25.2,30.14,NNW,348,0.0,0.0,30,0.00,,---,0.00,VWS V14.00,2013-06-14 05:05:00,
2013-06-13 22:10:00,56.2,24.8,30.14,NNW,348,0.0,0.0,30,0.00,,---,0.00,VWS V14.00,2013-06-14 05:10:00,
2013-06-13 22:15:00,56.2,24.8,30.14,NNW,348,0.0,0.0,30,0.00,,---,0.00,VWS V14.00,2013-06-14 05:15:00,
2013-06-13 22:25:00,55.5,24.2,30.14,NNW,348,0.0,0.0,30,0.00,,---,0.00,VWS V14.00,2013-06-14 05:25:00,
2013-06-13 22:30:00,55.8,24.5,30.14,NNW,348,0.0,0.0,30,0.00,,---,0.00,VWS V14.00,2013-06-14 05:30:00,
2013-06-13 22:35:00,55.6,23.5,30.15,NNW,348,0.0,0.0,28,0.00,,---,0.00,VWS V14.00,2013-06-14 05:35:00,
2013-06-13 22:45:00,57.0,23.8,30.15,NNW,348,0.0,0.0,28,0.00,,---,0.00,VWS V14.00,2013-06-14 05:45:00,
2013-06-13 22:50:00,57.2,24.0,30.15,NNW,348,0.0,0.0,28,0.00,,---,0.00,VWS V14.00,2013-06-14 05:50:00,
2013-06-13 22:55:00,57.6,23.4,30.14,NNW,348,0.0,0.0,26,0.00,,---,0.00,VWS V14.00,2013-06-14 05:55:00,
2013-06-13 23:00:00,57.6,23.4,30.14,NNW,348,0.0,0.0,26,0.00,,---,0.00,VWS V14.00,2013-06-14 06:00:00,
2013-06-13 23:05:00,57.5,23.4,30.14,NNW,348,0.0,0.0,26,0.00,,---,0.00,VWS V14.00,2013-06-14 06:05:00,
2013-06-13 23:15:00,55.3,23.2,30.14,NNW,348,0.0,0.0,28,0.00,,---,0.00,VWS V14.00,2013-06-14 06:15:00,
2013-06-13 23:20:00,53.3,22.3,30.14,NNW,348,2.0,8.0,30,0.00,,---,0.00,VWS V14.00,2013-06-14 06:20:00,
2013-06-13 23:25:00,51.5,22.3,30.14,North,350,6.0,7.0,32,0.00,,---,0.00,VWS V14.00,2013-06-14 06:25:00,
2013-06-13 23:30:00,52.3,22.2,30.14,North,355,7.0,8.0,30,0.00,,---,0.00,VWS V14.00,2013-06-14 06:30:00,
2013-06-13 23:35:00,51.2,22.0,30.14,NNE,14,8.0,10.0,32,0.00,,---,0.00,VWS V14.00,2013-06-14 06:35:00,
2013-06-13 23:40:00,50.1,21.8,30.14,NNE,14,5.0,8.0,32,0.00,,---,0.00,VWS V14.00,2013-06-14 06:40:00,
2013-06-13 23:45:00,50.0,21.7,30.14,NNE,15,4.0,7.0,32,0.00,,---,0.00,VWS V14.00,2013-06-14 06:45:00,
2013-06-13 23:50:00,50.1,21.8,30.14,NNE,15,0.0,7.0,32,0.00,,---,0.00,VWS V14.00,2013-06-14 06:50:00,
2013-06-13 23:55:00,50.5,22.1,30.14,NNE,14,0.0,0.0,32,0.00,,---,0.00,VWS V14.00,2013-06-14 06:55:00,